Home > Weather > Bathurst > Past weeks

Flag for Canada Weather for the Past 2 Weeks in Bathurst, New Brunswick, Canada

Now
37 °F

Drizzle. Fog.


Feels Like: 30 °F
Forecast: N/A
Wind: 10 mph from Northeast

Location: Bathurst Airport

Current Time: May 5, 2016 at 8:55:15 PM

Latest Report: May 5, 2016 at 8:00 PM


Visibility: 4 mi

Pressure: 29.98 "Hg

Humidity: 100%

Dew Point: 37 °F

Location of BathurstLocation

Historic Weather in Bathurst — Graph

°F

Bathurst Temperature Yesterday

Maximum temperature yesterday: 52 °F (at 5:00 PM)
Minimum temperature yesterday: 37 °F (at 12:00 AM)
Average temperature yesterday: 42 °F

High & Low Weather Summary for the Past Weeks

 TemperatureHumidityPressure
High70 °F (Apr 21, 5:00 PM)100% (Apr 23, 7:00 AM)30.30 "Hg (Apr 23, 7:00 AM)
Low21 °F (Apr 26, 6:00 AM)14% (Apr 29, 5:00 PM)29.73 "Hg (Apr 26, 6:00 PM)
Average40 °F57%29.96 "Hg
* Reported Apr 20 7:00 PM — May 5 7:00 PM, Bathurst, Weather by CustomWeather, © 2016

Note: Actual official high and low records may vary slightly from our data, if they occured in-between our weather recording intervals... More about our weather records

Advertising

Bathurst Weather History for the Previous 24 Hours

Scroll right to see more
 ConditionsComfort  
Time TempWeatherWind HumidityBarometerVisibility
7:00 PM
Thu, May 5
39 °FDrizzle. Fog.13 mph87%29.98 "Hg5 mi
6:00 PM41 °FLow clouds.10 mph81%29.98 "Hg15 mi
5:00 PM41 °FOvercast.10 mph81%30.00 "Hg15 mi
4:00 PM43 °FOvercast.7 mph76%29.99 "Hg15 mi
3:00 PM43 °FOvercast.8 mph71%30.01 "Hg15 mi
2:00 PM43 °FOvercast.13 mph76%30.01 "Hg12 mi
1:00 PM41 °FMostly cloudy.13 mph81%30.03 "Hg12 mi
12:00 PM41 °FMostly cloudy.7 mph87%30.03 "Hg12 mi
11:00 AM41 °FMostly cloudy.6 mph87%30.03 "Hg12 mi
10:00 AM39 °FLight rain. Mostly cloudy.5 mph93%30.03 "Hg12 mi
9:00 AM39 °FLight rain. Low clouds.2 mph93%30.04 "Hg7 mi
8:00 AM37 °FLight rain. Overcast.2 mph93%30.03 "Hg10 mi
7:00 AM36 °FLight rain. More clouds than sun.No wind93%30.04 "Hg7 mi
6:00 AM36 °FOvercast.No wind93%30.02 "Hg7 mi
5:00 AM36 °FOvercast.No wind93%30.03 "Hg7 mi
4:00 AM34 °FChilly.3 mph100%30.03 "Hg10 mi
3:00 AM34 °FOvercast.No wind100%30.02 "Hg10 mi
2:00 AM34 °FOvercast.No wind93%30.04 "Hg15 mi
1:00 AM34 °FOvercast.No wind100%30.04 "Hg15 mi
12:00 AM37 °FPassing clouds.2 mph87%30.03 "Hg15 mi
11:00 PM
Wed, May 4
37 °FPassing clouds.2 mph93%30.03 "Hg15 mi
10:00 PM39 °FPassing clouds.2 mph87%30.03 "Hg15 mi
9:00 PM41 °FScattered clouds.2 mph87%30.02 "Hg15 mi
8:00 PM45 °FScattered clouds.8 mph71%30.00 "Hg15 mi
Weather by CustomWeather, © 2016

See weather overviewHow to use our weather pages